Location: Unspecified
(35.6961°N, 0.0000°E)
Time: 13:12:08
(UTC+00:00)

S-56A Canister/Altair - Pass Details

Date: 28 May 2019
Orbit: 633 x 2499 km, 38.9° (Epoch: 23 June)

Event Time Altitude Azimuth Distance (km) Brightness Sun altitude
Rises 05:44:03 0° 288° (WNW) 4,247 10.8 9.8°
Reaches altitude 10° 05:46:38 10° 283° (WNW) 3,498 10.4 10.3°
Maximum altitude 05:55:32 51° 210° (SSW) 2,210 9.7 12.0°
Drops below altitude 10° 06:08:15 10° 140° (SE) 4,900 12.0 14.4°
Sets 06:12:37 0° 136° (SE) 6,052 12.5 15.3°
